Location: Degerfors
(59.2294°N, 14.4406°E)
Time: 15:10:18
(UTC+01:00)

ISS - Pass Details

Date: 03 December 2021
Orbit: 413 x 422 km, 51.6° (Epoch: 18 January)

Event Time Altitude Azimuth Distance (km) Brightness Sun altitude
Rises 17:00:43 0° 258° (WSW) 2,386 1.9 -12.7°
Reaches altitude 10° 17:03:09 10° 242° (WSW) 1,518 0.5 -12.9°
Maximum altitude 17:05:46 21° 191° (SSW) 1,026 -1.4 -13.3°
Drops below altitude 10° 17:08:22 10° 141° (SE) 1,511 -1.1 -13.6°
Enters shadow 17:09:21 - 133° (SE) 1,840 -0.8 -13.7°
